TimeCST,TemperatureF,Dew PointF,Humidity,Sea Level PressureIn,VisibilityMPH,Wind Direction,Wind SpeedMPH,Gust SpeedMPH,PrecipitationIn,Events,Conditions,WindDirDegrees,DateUTC
12:15 AM,-3.3,-17.0,52,30.42,10.0,NNW,6.9,-,N/A,,Clear,340,2014-03-03 06:15:00
12:35 AM,-3.1,-17.5,50,30.41,10.0,NNW,6.9,-,N/A,,Clear,340,2014-03-03 06:35:00
12:55 AM,-3.3,-17.5,51,30.42,10.0,NNW,8.1,-,N/A,,Clear,340,2014-03-03 06:55:00
1:15 AM,-3.3,-17.7,50,30.42,10.0,NNW,9.2,-,N/A,,Clear,340,2014-03-03 07:15:00
1:35 AM,-3.5,-17.9,50,30.43,10.0,NNW,10.4,-,N/A,,Clear,340,2014-03-03 07:35:00
1:55 AM,-3.8,-18.2,50,30.42,10.0,NNW,11.5,-,N/A,,Clear,340,2014-03-03 07:55:00
2:15 AM,-4.2,-18.4,51,30.41,10.0,NNW,12.7,-,N/A,,Clear,340,2014-03-03 08:15:00
2:35 AM,-4.4,-18.4,51,30.41,10.0,North,10.4,-,N/A,,Clear,350,2014-03-03 08:35:00
2:55 AM,-4.9,-18.4,52,30.41,10.0,NNW,10.4,-,N/A,,Clear,340,2014-03-03 08:55:00
3:15 AM,-5.3,-18.4,53,30.41,10.0,NNW,11.5,-,N/A,,Clear,340,2014-03-03 09:15:00
3:35 AM,-6.0,-18.4,55,30.41,10.0,NNW,10.4,-,N/A,,Clear,340,2014-03-03 09:35:00
3:55 AM,-6.3,-18.4,56,30.41,10.0,North,10.4,-,N/A,,Clear,350,2014-03-03 09:55:00
4:15 AM,-6.9,-18.6,57,30.41,10.0,North,11.5,-,N/A,,Clear,350,2014-03-03 10:15:00
4:35 AM,-7.1,-18.4,58,30.42,10.0,NNW,11.5,-,N/A,,Clear,340,2014-03-03 10:35:00
4:55 AM,-7.1,-18.4,58,30.43,10.0,NNW,11.5,-,N/A,,Clear,340,2014-03-03 10:55:00
5:15 AM,-7.2,-18.4,58,30.44,10.0,NNW,10.4,-,N/A,,Clear,340,2014-03-03 11:15:00
5:35 AM,-7.8,-18.6,59,30.44,10.0,North,11.5,-,N/A,,Clear,350,2014-03-03 11:35:00
5:55 AM,-7.8,-18.4,60,30.44,10.0,North,11.5,-,N/A,,Clear,350,2014-03-03 11:55:00
6:15 AM,-7.8,-18.4,60,30.44,10.0,North,10.4,-,N/A,,Clear,350,2014-03-03 12:15:00
6:35 AM,-8.1,-18.4,61,30.45,10.0,North,8.1,-,N/A,,Clear,350,2014-03-03 12:35:00
6:55 AM,-7.6,-18.6,59,30.45,10.0,NNW,5.8,-,N/A,,Clear,330,2014-03-03 12:55:00
7:15 AM,-7.2,-18.4,58,30.45,10.0,North,6.9,-,N/A,,Clear,350,2014-03-03 13:15:00
7:35 AM,-6.9,-17.5,60,30.46,10.0,NNW,8.1,-,N/A,,Clear,340,2014-03-03 13:35:00
7:55 AM,-5.6,-16.6,59,30.46,10.0,NNW,8.1,-,N/A,,Clear,340,2014-03-03 13:55:00
8:15 AM,-4.7,-15.7,59,30.47,10.0,North,9.2,-,N/A,,Clear,350,2014-03-03 14:15:00
8:35 AM,-3.8,-14.8,59,30.47,10.0,North,8.1,-,N/A,,Clear,350,2014-03-03 14:35:00
8:55 AM,-2.2,-13.7,58,30.47,10.0,NNW,8.1,-,N/A,,Clear,340,2014-03-03 14:55:00
9:15 AM,-0.9,-11.7,60,30.47,10.0,NNW,6.9,-,N/A,,Clear,340,2014-03-03 15:15:00
9:35 AM,0.1,-10.7,60,30.47,10.0,North,6.9,-,N/A,,Clear,350,2014-03-03 15:35:00
9:55 AM,1.8,-8.7,62,30.48,10.0,North,6.9,-,N/A,,Clear,10,2014-03-03 15:55:00
10:15 AM,4.3,-4.7,66,30.48,10.0,NE,5.8,-,N/A,,Clear,40,2014-03-03 16:15:00
10:35 AM,3.9,-5.6,65,30.49,10.0,NNE,5.8,-,N/A,,Scattered Clouds,30,2014-03-03 16:35:00
10:55 AM,4.8,-4.4,66,30.50,10.0,NNE,5.8,-,N/A,,Overcast,30,2014-03-03 16:55:00
11:15 AM,6.1,-3.5,65,30.48,10.0,NE,5.8,-,N/A,,Mostly Cloudy,50,2014-03-03 17:15:00
11:35 AM,6.8,-2.9,64,30.48,10.0,NE,4.6,-,N/A,,Scattered Clouds,50,2014-03-03 17:35:00
11:55 AM,8.8,-1.7,63,30.48,10.0,Calm,Calm,-,N/A,,Clear,0,2014-03-03 17:55:00
12:15 PM,9.0,-1.5,63,30.48,10.0,Calm,Calm,-,N/A,,Clear,0,2014-03-03 18:15:00
12:35 PM,10.0,0.1,64,30.47,10.0,South,4.6,-,N/A,,Clear,170,2014-03-03 18:35:00
12:55 PM,10.4,0.9,65,30.46,10.0,South,4.6,-,N/A,,Clear,190,2014-03-03 18:55:00
1:15 PM,10.4,0.1,63,30.46,10.0,South,6.9,-,N/A,,Clear,180,2014-03-03 19:15:00
1:35 PM,10.6,1.0,65,30.46,10.0,South,5.8,-,N/A,,Clear,180,2014-03-03 19:35:00
1:55 PM,10.6,-1.1,59,30.46,10.0,SSW,9.2,-,N/A,,Clear,200,2014-03-03 19:55:00
2:15 PM,11.1,-0.2,60,30.46,10.0,SSW,8.1,-,N/A,,Clear,200,2014-03-03 20:15:00
2:35 PM,11.3,-0.2,60,30.46,10.0,SSW,8.1,-,N/A,,Clear,210,2014-03-03 20:35:00
2:55 PM,11.5,0.3,61,30.45,10.0,SSW,8.1,-,N/A,,Clear,210,2014-03-03 20:55:00
3:15 PM,11.3,0.1,61,30.45,10.0,SSW,6.9,-,N/A,,Clear,210,2014-03-03 21:15:00
3:35 PM,11.3,-0.0,60,30.45,10.0,SW,6.9,-,N/A,,Scattered Clouds,230,2014-03-03 21:35:00
3:55 PM,11.3,0.9,63,30.44,10.0,SSW,6.9,-,N/A,,Scattered Clouds,210,2014-03-03 21:55:00
4:15 PM,10.9,0.5,63,30.44,10.0,SSW,8.1,-,N/A,,Mostly Cloudy,200,2014-03-03 22:15:00
4:35 PM,10.4,-0.6,61,30.43,10.0,South,6.9,-,N/A,,Scattered Clouds,190,2014-03-03 22:35:00
4:55 PM,9.3,0.5,67,30.43,10.0,South,5.8,-,N/A,,Clear,190,2014-03-03 22:55:00
5:15 PM,8.4,0.5,70,30.43,10.0,SSW,4.6,-,N/A,,Clear,200,2014-03-03 23:15:00
5:35 PM,8.4,0.5,70,30.43,10.0,SW,3.5,-,N/A,,Clear,230,2014-03-03 23:35:00
6:00 PM,7.3,0.3,73,30.42,10.0,SW,4.6,-,N/A,,Clear,230,2014-03-04 00:00:00
6:15 PM,6.6,0.1,75,30.41,10.0,SW,3.5,-,N/A,,Clear,220,2014-03-04 00:15:00
6:35 PM,5.5,-0.4,77,30.40,10.0,SSW,3.5,-,N/A,,Scattered Clouds,210,2014-03-04 00:35:00
6:55 PM,7.3,1.2,76,30.41,10.0,WSW,5.8,-,N/A,,Clear,240,2014-03-04 00:55:00
7:15 PM,6.4,0.3,76,30.40,10.0,WSW,4.6,-,N/A,,Clear,250,2014-03-04 01:15:00
7:35 PM,7.3,1.4,77,30.39,10.0,WSW,4.6,-,N/A,,Clear,240,2014-03-04 01:35:00
7:55 PM,5.9,0.1,77,30.37,10.0,SW,4.6,-,N/A,,Clear,220,2014-03-04 01:55:00
8:15 PM,6.8,1.2,78,30.36,10.0,SW,4.6,-,N/A,,Clear,230,2014-03-04 02:15:00
8:35 PM,5.7,0.3,78,30.36,10.0,Calm,Calm,-,N/A,,Mostly Cloudy,0,2014-03-04 02:35:00
8:55 PM,6.4,0.9,78,30.36,10.0,SSW,3.5,-,N/A,,Scattered Clouds,210,2014-03-04 02:55:00
9:15 PM,6.6,1.2,79,30.37,10.0,WSW,3.5,-,N/A,,Clear,250,2014-03-04 03:15:00
9:35 PM,7.0,1.4,78,30.37,10.0,Calm,Calm,-,N/A,,Clear,0,2014-03-04 03:35:00
9:55 PM,7.7,2.3,79,30.36,10.0,WSW,3.5,-,N/A,,Scattered Clouds,250,2014-03-04 03:55:00
10:15 PM,8.2,2.3,77,30.36,10.0,South,3.5,-,N/A,,Scattered Clouds,170,2014-03-04 04:15:00
10:40 PM,7.7,2.7,80,30.34,10.0,South,5.8,-,N/A,,Scattered Clouds,170,2014-03-04 04:40:00
10:55 PM,7.7,2.8,81,30.33,10.0,South,4.6,-,N/A,,Scattered Clouds,170,2014-03-04 04:55:00
11:15 PM,7.7,2.3,79,30.34,10.0,South,3.5,-,N/A,,Scattered Clouds,180,2014-03-04 05:15:00
11:35 PM,8.2,2.5,77,30.34,10.0,Calm,Calm,-,N/A,,Clear,0,2014-03-04 05:35:00
11:55 PM,8.4,2.3,76,30.35,10.0,SSW,3.5,-,N/A,,Clear,210,2014-03-04 05:55:00